Time,TemperatureF,DewpointF,PressureIn,WindDirection,WindDirectionDegrees,WindSpeedMPH,WindSpeedGustMPH,Humidity,HourlyPrecipIn,Conditions,Clouds,dailyrainin,SoftwareType,DateUTC
2013-05-11 00:03:00,54.7,35.3,30.11,North,3,1.0,2.0,48,0.00,,,0.00,WUHU216DAVISVP2,2013-05-11 07:03:00,
2013-05-11 00:08:00,54.0,35.2,30.11,North,349,2.0,3.0,49,0.00,,,0.00,WUHU216DAVISVP2,2013-05-11 07:08:00,
2013-05-11 00:13:00,53.4,34.7,30.11,NNW,344,1.0,1.0,49,0.00,,,0.00,WUHU216DAVISVP2,2013-05-11 07:13:00,
2013-05-11 00:18:00,53.2,34.0,30.11,NNW,345,2.0,3.0,48,0.00,,,0.00,WUHU216DAVISVP2,2013-05-11 07:18:00,
2013-05-11 00:23:00,53.3,34.1,30.11,North,354,1.0,3.0,48,0.00,,,0.00,WUHU216DAVISVP2,2013-05-11 07:23:00,
2013-05-11 00:28:00,53.2,34.0,30.11,North,355,1.0,2.0,48,0.00,,,0.00,WUHU216DAVISVP2,2013-05-11 07:28:00,
2013-05-11 00:33:00,53.3,33.5,30.11,NNE,20,2.0,3.0,47,0.00,,,0.00,WUHU216DAVISVP2,2013-05-11 07:33:00,
2013-05-11 00:38:00,54.6,33.6,30.11,NNE,28,2.0,4.0,45,0.00,,,0.00,WUHU216DAVISVP2,2013-05-11 07:38:00,
2013-05-11 00:43:00,55.8,34.1,30.11,NNE,13,2.0,6.0,44,0.00,,,0.00,WUHU216DAVISVP2,2013-05-11 07:43:00,
2013-05-11 00:48:00,56.7,33.7,30.11,NNE,23,2.0,5.0,42,0.00,,,0.00,WUHU216DAVISVP2,2013-05-11 07:48:00,
2013-05-11 00:53:00,57.3,33.6,30.10,NNE,27,2.0,4.0,41,0.00,,,0.00,WUHU216DAVISVP2,2013-05-11 07:53:00,
2013-05-11 00:58:00,57.7,34.0,30.11,NNE,28,2.0,3.0,41,0.00,,,0.00,WUHU216DAVISVP2,2013-05-11 07:58:00,
2013-05-11 01:03:00,57.7,34.6,30.11,NE,47,1.0,1.0,42,0.00,,,0.00,WUHU216DAVISVP2,2013-05-11 08:03:00,
2013-05-11 01:08:00,56.1,34.4,30.11,NE,46,1.0,1.0,44,0.00,,,0.00,WUHU216DAVISVP2,2013-05-11 08:08:00,
2013-05-11 01:14:00,54.5,34.1,30.11,NE,47,1.0,2.0,46,0.00,,,0.00,WUHU216DAVISVP2,2013-05-11 08:14:00,
2013-05-11 01:19:00,53.6,33.2,30.11,ESE,117,1.0,2.0,46,0.00,,,0.00,WUHU216DAVISVP2,2013-05-11 08:19:00,
2013-05-11 01:24:00,53.4,33.6,30.11,ENE,76,2.0,4.0,47,0.00,,,0.00,WUHU216DAVISVP2,2013-05-11 08:24:00,
2013-05-11 01:29:00,53.9,33.5,30.11,ENE,76,3.0,6.0,46,0.00,,,0.00,WUHU216DAVISVP2,2013-05-11 08:29:00,
2013-05-11 01:34:00,54.4,34.0,30.11,ENE,69,4.0,7.0,46,0.00,,,0.00,WUHU216DAVISVP2,2013-05-11 08:34:00,
2013-05-11 01:39:00,54.7,33.7,30.11,ENE,70,4.0,7.0,45,0.00,,,0.00,WUHU216DAVISVP2,2013-05-11 08:39:00,
2013-05-11 01:44:00,54.8,33.8,30.11,ENE,59,4.0,7.0,45,0.00,,,0.00,WUHU216DAVISVP2,2013-05-11 08:44:00,
2013-05-11 01:49:00,54.8,33.8,30.11,NE,56,5.0,8.0,45,0.00,,,0.00,WUHU216DAVISVP2,2013-05-11 08:49:00,
2013-05-11 01:54:00,54.6,33.6,30.11,NE,52,4.0,6.0,45,0.00,,,0.00,WUHU216DAVISVP2,2013-05-11 08:54:00,
2013-05-11 01:59:00,54.9,33.9,30.11,NNE,32,3.0,7.0,45,0.00,,,0.00,WUHU216DAVISVP2,2013-05-11 08:59:00,
2013-05-11 02:04:00,55.4,34.3,30.11,NNE,29,4.0,6.0,45,0.00,,,0.00,WUHU216DAVISVP2,2013-05-11 09:04:00,
2013-05-11 02:09:00,55.7,34.0,30.11,NNE,33,3.0,5.0,44,0.00,,,0.00,WUHU216DAVISVP2,2013-05-11 09:09:00,
2013-05-11 02:14:00,55.5,34.4,30.11,NE,41,2.0,5.0,45,0.00,,,0.00,WUHU216DAVISVP2,2013-05-11 09:14:00,
2013-05-11 02:19:00,55.5,33.8,30.11,NNE,27,3.0,8.0,44,0.00,,,0.00,WUHU216DAVISVP2,2013-05-11 09:19:00,
2013-05-11 02:24:00,55.5,33.8,30.11,NNE,32,3.0,7.0,44,0.00,,,0.00,WUHU216DAVISVP2,2013-05-11 09:24:00,
2013-05-11 02:29:00,55.4,34.3,30.11,NNE,33,2.0,4.0,45,0.00,,,0.00,WUHU216DAVISVP2,2013-05-11 09:29:00,
2013-05-11 02:35:00,55.4,34.3,30.11,NE,36,2.0,4.0,45,0.00,,,0.00,WUHU216DAVISVP2,2013-05-11 09:35:00,
2013-05-11 02:40:00,55.4,34.3,30.11,NE,44,2.0,4.0,45,0.00,,,0.00,WUHU216DAVISVP2,2013-05-11 09:40:00,
2013-05-11 02:45:00,55.5,34.4,30.11,NE,40,2.0,3.0,45,0.00,,,0.00,WUHU216DAVISVP2,2013-05-11 09:45:00,
2013-05-11 02:50:00,55.4,34.3,30.11,NNE,28,2.0,4.0,45,0.00,,,0.00,WUHU216DAVISVP2,2013-05-11 09:50:00,
2013-05-11 02:55:00,55.4,34.3,30.11,NNE,22,2.0,4.0,45,0.00,,,0.00,WUHU216DAVISVP2,2013-05-11 09:55:00,
2013-05-11 03:00:00,55.5,34.4,30.11,NNE,27,2.0,3.0,45,0.00,,,0.00,WUHU216DAVISVP2,2013-05-11 10:00:00,
2013-05-11 03:05:00,55.6,34.5,30.11,NNE,25,2.0,5.0,45,0.00,,,0.00,WUHU216DAVISVP2,2013-05-11 10:05:00,
2013-05-11 03:10:00,55.8,34.7,30.10,NNE,25,2.0,5.0,45,0.00,,,0.00,WUHU216DAVISVP2,2013-05-11 10:10:00,
2013-05-11 03:15:00,56.1,34.4,30.10,NNE,26,2.0,5.0,44,0.00,,,0.00,WUHU216DAVISVP2,2013-05-11 10:15:00,
2013-05-11 03:20:00,56.2,34.5,30.10,NNE,27,2.0,5.0,44,0.00,,,0.00,WUHU216DAVISVP2,2013-05-11 10:20:00,
2013-05-11 03:25:00,56.1,34.4,30.10,NNE,21,2.0,4.0,44,0.00,,,0.00,WUHU216DAVISVP2,2013-05-11 10:25:00,
2013-05-11 03:30:00,56.1,34.4,30.10,NNE,18,2.0,5.0,44,0.00,,,0.00,WUHU216DAVISVP2,2013-05-11 10:30:00,
2013-05-11 03:35:00,56.1,34.4,30.10,NNE,18,2.0,4.0,44,0.00,,,0.00,WUHU216DAVISVP2,2013-05-11 10:35:00,
2013-05-11 03:40:00,55.9,34.2,30.10,NNE,14,2.0,4.0,44,0.00,,,0.00,WUHU216DAVISVP2,2013-05-11 10:40:00,
2013-05-11 03:45:00,55.7,34.0,30.10,North,6,2.0,4.0,44,0.00,,,0.00,WUHU216DAVISVP2,2013-05-11 10:45:00,
2013-05-11 03:51:00,55.5,33.8,30.10,NNE,32,2.0,3.0,44,0.00,,,0.00,WUHU216DAVISVP2,2013-05-11 10:51:00,
2013-05-11 03:56:00,55.4,33.7,30.10,NE,35,2.0,5.0,44,0.00,,,0.00,WUHU216DAVISVP2,2013-05-11 10:56:00,
2013-05-11 04:01:00,55.3,33.6,30.10,NE,56,3.0,4.0,44,0.00,,,0.00,WUHU216DAVISVP2,2013-05-11 11:01:00,
2013-05-11 04:06:00,55.1,34.0,30.10,NNE,22,2.0,3.0,45,0.00,,,0.00,WUHU216DAVISVP2,2013-05-11 11:06:00,
2013-05-11 04:11:00,54.8,33.8,30.10,NNE,20,1.0,1.0,45,0.00,,,0.00,WUHU216DAVISVP2,2013-05-11 11:11:00,
2013-05-11 04:16:00,54.1,33.7,30.10,North,0,0.0,0.0,46,0.00,,,0.00,WUHU216DAVISVP2,2013-05-11 11:16:00,
2013-05-11 04:21:00,53.2,34.0,30.10,North,0,0.0,0.0,48,0.00,,,0.00,WUHU216DAVISVP2,2013-05-11 11:21:00,
2013-05-11 04:26:00,52.2,33.6,30.10,North,0,0.0,0.0,49,0.00,,,0.00,WUHU216DAVISVP2,2013-05-11 11:26:00,
2013-05-11 04:31:00,51.0,33.5,30.11,North,0,0.0,0.0,51,0.00,,,0.00,WUHU216DAVISVP2,2013-05-11 11:31:00,
2013-05-11 04:36:00,50.0,33.6,30.11,North,0,0.0,0.0,53,0.00,,,0.00,WUHU216DAVISVP2,2013-05-11 11:36:00,
2013-05-11 04:41:00,49.4,33.9,30.11,NNW,347,1.0,2.0,55,0.00,,,0.00,WUHU216DAVISVP2,2013-05-11 11:41:00,
2013-05-11 04:46:00,49.2,33.8,30.11,NW,318,1.0,3.0,55,0.00,,,0.00,WUHU216DAVISVP2,2013-05-11 11:46:00,
2013-05-11 04:51:00,48.8,33.8,30.11,WNW,296,2.0,3.0,56,0.00,,,0.00,WUHU216DAVISVP2,2013-05-11 11:51:00,
2013-05-11 04:56:00,48.5,34.0,30.11,West,260,2.0,3.0,57,0.00,,,0.00,WUHU216DAVISVP2,2013-05-11 11:56:00,
2013-05-11 05:01:00,48.3,33.8,30.11,West,259,2.0,3.0,57,0.00,,,0.00,WUHU216DAVISVP2,2013-05-11 12:01:00,
2013-05-11 05:07:00,48.1,33.6,30.12,West,259,1.0,2.0,57,0.00,,,0.00,WUHU216DAVISVP2,2013-05-11 12:07:00,
2013-05-11 05:12:00,47.6,33.2,30.11,North,0,0.0,0.0,57,0.00,,,0.00,WUHU216DAVISVP2,2013-05-11 12:12:00,
2013-05-11 05:17:00,47.2,33.7,30.11,North,0,0.0,0.0,59,0.00,,,0.00,WUHU216DAVISVP2,2013-05-11 12:17:00,
2013-05-11 05:22:00,47.2,33.7,30.12,North,0,0.0,0.0,59,0.00,,,0.00,WUHU216DAVISVP2,2013-05-11 12:22:00,
2013-05-11 05:27:00,46.9,33.4,30.12,West,259,2.0,2.0,59,0.00,,,0.00,WUHU216DAVISVP2,2013-05-11 12:27:00,
2013-05-11 05:32:00,46.7,33.6,30.12,North,0,0.0,0.0,60,0.00,,,0.00,WUHU216DAVISVP2,2013-05-11 12:32:00,
2013-05-11 05:37:00,46.8,33.7,30.13,WSW,254,2.0,3.0,60,0.00,,,0.00,WUHU216DAVISVP2,2013-05-11 12:37:00,
2013-05-11 05:42:00,46.8,34.1,30.13,WSW,257,1.0,2.0,61,0.00,,,0.00,WUHU216DAVISVP2,2013-05-11 12:42:00,
2013-05-11 05:47:00,47.3,34.6,30.13,WSW,257,1.0,1.0,61,0.00,,,0.00,WUHU216DAVISVP2,2013-05-11 12:47:00,
2013-05-11 05:52:00,48.3,34.7,30.13,NNE,24,1.0,1.0,59,0.00,,,0.00,WUHU216DAVISVP2,2013-05-11 12:52:00,
2013-05-11 05:57:00,49.4,34.9,30.13,NNW,332,1.0,2.0,57,0.00,,,0.00,WUHU216DAVISVP2,2013-05-11 12:57:00,
2013-05-11 06:02:00,50.6,35.1,30.13,NNW,332,1.0,1.0,55,0.00,,,0.00,WUHU216DAVISVP2,2013-05-11 13:02:00,
2013-05-11 06:07:00,51.3,35.7,30.13,NW,326,2.0,3.0,55,0.00,,,0.00,WUHU216DAVISVP2,2013-05-11 13:07:00,
2013-05-11 06:12:00,52.0,35.4,30.13,WNW,299,2.0,3.0,53,0.00,,,0.00,WUHU216DAVISVP2,2013-05-11 13:12:00,
2013-05-11 06:18:00,52.9,35.3,30.13,WNW,292,1.0,1.0,51,0.00,,,0.00,WUHU216DAVISVP2,2013-05-11 13:18:00,
2013-05-11 06:23:00,53.8,36.1,30.13,NW,308,1.0,2.0,51,0.00,,,0.00,WUHU216DAVISVP2,2013-05-11 13:23:00,
2013-05-11 06:28:00,54.9,36.6,30.13,East,94,2.0,3.0,50,0.00,,,0.00,WUHU216DAVISVP2,2013-05-11 13:28:00,
2013-05-11 06:33:00,55.8,35.8,30.13,North,0,0.0,0.0,47,0.00,,,0.00,WUHU216DAVISVP2,2013-05-11 13:33:00,
2013-05-11 06:38:00,56.9,35.7,30.14,North,0,0.0,0.0,45,0.00,,,0.00,WUHU216DAVISVP2,2013-05-11 13:38:00,
2013-05-11 06:43:00,58.2,35.7,30.14,North,0,0.0,0.0,43,0.00,,,0.00,WUHU216DAVISVP2,2013-05-11 13:43:00,
2013-05-11 06:48:00,59.4,36.2,30.14,ENE,58,2.0,4.0,42,0.00,,,0.00,WUHU216DAVISVP2,2013-05-11 13:48:00,
2013-05-11 06:53:00,59.8,35.9,30.14,NE,45,2.0,5.0,41,0.00,,,0.00,WUHU216DAVISVP2,2013-05-11 13:53:00,
2013-05-11 06:58:00,59.7,35.2,30.15,ENE,66,2.0,5.0,40,0.00,,,0.00,WUHU216DAVISVP2,2013-05-11 13:58:00,
2013-05-11 07:03:00,59.7,35.8,30.14,NE,46,2.0,4.0,41,0.00,,,0.00,WUHU216DAVISVP2,2013-05-11 14:03:00,
2013-05-11 07:08:00,59.8,35.9,30.14,ENE,66,3.0,5.0,41,0.00,,,0.00,WUHU216DAVISVP2,2013-05-11 14:08:00,
2013-05-11 07:13:00,59.7,35.8,30.14,ENE,75,3.0,7.0,41,0.00,,,0.00,WUHU216DAVISVP2,2013-05-11 14:13:00,
2013-05-11 07:19:00,59.6,35.7,30.15,ENE,65,3.0,7.0,41,0.00,,,0.00,WUHU216DAVISVP2,2013-05-11 14:19:00,
2013-05-11 07:24:00,59.6,35.7,30.15,ENE,70,4.0,7.0,41,0.00,,,0.00,WUHU216DAVISVP2,2013-05-11 14:24:00,
2013-05-11 07:29:00,59.7,35.8,30.15,East,97,3.0,5.0,41,0.00,,,0.00,WUHU216DAVISVP2,2013-05-11 14:29:00,
2013-05-11 07:34:00,60.0,36.1,30.15,ESE,118,2.0,3.0,41,0.00,,,0.00,WUHU216DAVISVP2,2013-05-11 14:34:00,
2013-05-11 07:39:00,60.6,36.0,30.15,East,83,4.0,7.0,40,0.00,,,0.00,WUHU216DAVISVP2,2013-05-11 14:39:00,
2013-05-11 07:44:00,60.3,35.7,30.15,East,79,4.0,8.0,40,0.00,,,0.00,WUHU216DAVISVP2,2013-05-11 14:44:00,
2013-05-11 07:49:00,60.4,35.8,30.15,East,97,4.0,8.0,40,0.00,,,0.00,WUHU216DAVISVP2,2013-05-11 14:49:00,
2013-05-11 07:54:00,60.7,36.1,30.16,ESE,109,5.0,8.0,40,0.00,,,0.00,WUHU216DAVISVP2,2013-05-11 14:54:00,
2013-05-11 07:59:00,60.9,36.3,30.15,East,101,4.0,8.0,40,0.00,,,0.00,WUHU216DAVISVP2,2013-05-11 14:59:00,
2013-05-11 08:04:00,61.2,35.9,30.16,ESE,103,5.0,9.0,39,0.00,,,0.00,WUHU216DAVISVP2,2013-05-11 15:04:00,
2013-05-11 08:09:00,61.4,36.0,30.16,ESE,108,5.0,8.0,39,0.00,,,0.00,WUHU216DAVISVP2,2013-05-11 15:09:00,
2013-05-11 08:14:00,61.5,36.1,30.16,SE,124,6.0,9.0,39,0.00,,,0.00,WUHU216DAVISVP2,2013-05-11 15:14:00,
2013-05-11 08:19:00,61.7,36.3,30.16,ESE,106,5.0,10.0,39,0.00,,,0.00,WUHU216DAVISVP2,2013-05-11 15:19:00,
2013-05-11 08:24:00,61.5,36.1,30.16,ESE,114,6.0,10.0,39,0.00,,,0.00,WUHU216DAVISVP2,2013-05-11 15:24:00,
2013-05-11 08:29:00,61.9,36.5,30.16,ESE,107,6.0,11.0,39,0.00,,,0.00,WUHU216DAVISVP2,2013-05-11 15:29:00,
2013-05-11 08:35:00,61.9,35.8,30.16,ESE,112,7.0,12.0,38,0.00,,,0.00,WUHU216DAVISVP2,2013-05-11 15:35:00,
2013-05-11 08:40:00,62.4,36.3,30.16,East,95,7.0,12.0,38,0.00,,,0.00,WUHU216DAVISVP2,2013-05-11 15:40:00,
2013-05-11 08:45:00,62.3,36.2,30.16,East,96,8.0,15.0,38,0.00,,,0.00,WUHU216DAVISVP2,2013-05-11 15:45:00,
2013-05-11 08:50:00,62.5,36.4,30.16,ESE,109,7.0,10.0,38,0.00,,,0.00,WUHU216DAVISVP2,2013-05-11 15:50:00,
2013-05-11 08:55:00,62.8,36.6,30.16,ESE,105,8.0,14.0,38,0.00,,,0.00,WUHU216DAVISVP2,2013-05-11 15:55:00,
2013-05-11 09:00:00,63.2,36.3,30.16,East,97,8.0,14.0,37,0.00,,,0.00,WUHU216DAVISVP2,2013-05-11 16:00:00,
2013-05-11 09:05:00,63.3,37.1,30.16,ESE,105,8.0,14.0,38,0.00,,,0.00,WUHU216DAVISVP2,2013-05-11 16:05:00,
2013-05-11 09:10:00,63.6,36.7,30.16,ESE,120,8.0,13.0,37,0.00,,,0.00,WUHU216DAVISVP2,2013-05-11 16:10:00,
2013-05-11 09:15:00,63.6,36.7,30.16,ESE,105,7.0,10.0,37,0.00,,,0.00,WUHU216DAVISVP2,2013-05-11 16:15:00,
2013-05-11 09:20:00,63.9,36.9,30.16,ESE,105,7.0,12.0,37,0.00,,,0.00,WUHU216DAVISVP2,2013-05-11 16:20:00,
2013-05-11 09:25:00,64.6,36.8,30.16,ESE,120,7.0,12.0,36,0.00,,,0.00,WUHU216DAVISVP2,2013-05-11 16:25:00,
2013-05-11 09:30:00,64.7,36.2,30.16,East,101,8.0,16.0,35,0.00,,,0.00,WUHU216DAVISVP2,2013-05-11 16:30:00,
2013-05-11 09:36:00,64.5,36.8,30.16,SE,129,9.0,14.0,36,0.00,,,0.00,WUHU216DAVISVP2,2013-05-11 16:36:00,
2013-05-11 09:41:00,64.6,36.8,30.16,SE,132,8.0,14.0,36,0.00,,,0.00,WUHU216DAVISVP2,2013-05-11 16:41:00,
2013-05-11 09:46:00,65.3,36.7,30.16,ESE,108,9.0,14.0,35,0.00,,,0.00,WUHU216DAVISVP2,2013-05-11 16:46:00,
2013-05-11 09:51:00,65.4,36.8,30.16,ESE,112,8.0,13.0,35,0.00,,,0.00,WUHU216DAVISVP2,2013-05-11 16:51:00,
2013-05-11 09:56:00,65.6,37.0,30.16,SE,128,7.0,14.0,35,0.00,,,0.00,WUHU216DAVISVP2,2013-05-11 16:56:00,
2013-05-11 10:01:00,65.8,37.2,30.16,ESE,110,8.0,12.0,35,0.00,,,0.00,WUHU216DAVISVP2,2013-05-11 17:01:00,
2013-05-11 10:06:00,66.2,36.0,30.16,ESE,114,8.0,11.0,33,0.00,,,0.00,WUHU216DAVISVP2,2013-05-11 17:06:00,
2013-05-11 10:11:00,66.4,36.2,30.16,ESE,105,9.0,14.0,33,0.00,,,0.00,WUHU216DAVISVP2,2013-05-11 17:11:00,
2013-05-11 10:16:00,66.3,36.1,30.16,ESE,103,6.0,13.0,33,0.00,,,0.00,WUHU216DAVISVP2,2013-05-11 17:16:00,
2013-05-11 10:21:00,66.7,36.5,30.16,East,85,8.0,13.0,33,0.00,,,0.00,WUHU216DAVISVP2,2013-05-11 17:21:00,
2013-05-11 10:26:00,66.9,36.7,30.16,ESE,119,8.0,16.0,33,0.00,,,0.00,WUHU216DAVISVP2,2013-05-11 17:26:00,
2013-05-11 10:31:00,66.8,36.6,30.15,SE,132,7.0,12.0,33,0.00,,,0.00,WUHU216DAVISVP2,2013-05-11 17:31:00,
2013-05-11 10:36:00,67.3,36.2,30.16,ESE,122,9.0,15.0,32,0.00,,,0.00,WUHU216DAVISVP2,2013-05-11 17:36:00,
2013-05-11 10:41:00,67.3,37.0,30.16,East,94,7.0,14.0,33,0.00,,,0.00,WUHU216DAVISVP2,2013-05-11 17:41:00,
2013-05-11 10:47:00,67.4,37.1,30.15,ESE,106,5.0,21.0,33,0.00,,,0.00,WUHU216DAVISVP2,2013-05-11 17:47:00,
2013-05-11 10:52:00,68.3,37.1,30.16,ESE,112,10.0,19.0,32,0.00,,,0.00,WUHU216DAVISVP2,2013-05-11 17:52:00,
2013-05-11 10:57:00,68.1,37.7,30.15,SE,128,10.0,16.0,33,0.00,,,0.00,WUHU216DAVISVP2,2013-05-11 17:57:00,
2013-05-11 11:02:00,68.2,37.8,30.15,SE,134,10.0,15.0,33,0.00,,,0.00,WUHU216DAVISVP2,2013-05-11 18:02:00,
2013-05-11 11:07:00,67.9,36.8,30.15,ESE,115,10.0,15.0,32,0.00,,,0.00,WUHU216DAVISVP2,2013-05-11 18:07:00,
2013-05-11 11:12:00,68.5,36.5,30.15,ESE,104,8.0,14.0,31,0.00,,,0.00,WUHU216DAVISVP2,2013-05-11 18:12:00,
2013-05-11 11:17:00,68.2,37.8,30.15,SE,129,9.0,19.0,33,0.00,,,0.00,WUHU216DAVISVP2,2013-05-11 18:17:00,
2013-05-11 11:22:00,68.7,37.5,30.15,ESE,118,9.0,14.0,32,0.00,,,0.00,WUHU216DAVISVP2,2013-05-11 18:22:00,
2013-05-11 11:27:00,68.0,36.0,30.15,ESE,120,11.0,18.0,31,0.00,,,0.00,WUHU216DAVISVP2,2013-05-11 18:27:00,
2013-05-11 11:32:00,67.7,36.6,30.15,East,92,7.0,14.0,32,0.00,,,0.00,WUHU216DAVISVP2,2013-05-11 18:32:00,
2013-05-11 11:37:00,67.3,37.0,30.15,SE,128,8.0,13.0,33,0.00,,,0.00,WUHU216DAVISVP2,2013-05-11 18:37:00,
2013-05-11 11:42:00,68.8,37.5,30.15,ESE,102,7.0,14.0,32,0.00,,,0.00,WUHU216DAVISVP2,2013-05-11 18:42:00,
2013-05-11 11:47:00,68.2,37.0,30.14,East,97,12.0,17.0,32,0.00,,,0.00,WUHU216DAVISVP2,2013-05-11 18:47:00,
2013-05-11 11:52:00,68.5,37.3,30.15,East,98,8.0,14.0,32,0.00,,,0.00,WUHU216DAVISVP2,2013-05-11 18:52:00,
2013-05-11 11:57:00,68.8,35.1,30.15,East,97,9.0,16.0,29,0.00,,,0.00,WUHU216DAVISVP2,2013-05-11 18:57:00,
2013-05-11 12:02:00,69.3,37.2,30.15,ENE,62,8.0,13.0,31,0.00,,,0.00,WUHU216DAVISVP2,2013-05-11 19:02:00,
2013-05-11 12:08:00,69.0,36.1,30.14,NE,38,4.0,9.0,30,0.00,,,0.00,WUHU216DAVISVP2,2013-05-11 19:08:00,
2013-05-11 12:13:00,69.0,36.1,30.14,ENE,75,6.0,12.0,30,0.00,,,0.00,WUHU216DAVISVP2,2013-05-11 19:13:00,
2013-05-11 12:18:00,69.4,35.6,30.14,ESE,105,9.0,14.0,29,0.00,,,0.00,WUHU216DAVISVP2,2013-05-11 19:18:00,
2013-05-11 12:23:00,70.1,36.2,30.14,East,86,5.0,11.0,29,0.00,,,0.00,WUHU216DAVISVP2,2013-05-11 19:23:00,
2013-05-11 12:28:00,71.1,36.2,30.14,ESE,114,9.0,16.0,28,0.00,,,0.00,WUHU216DAVISVP2,2013-05-11 19:28:00,
2013-05-11 12:33:00,70.5,35.7,30.14,East,99,7.0,14.0,28,0.00,,,0.00,WUHU216DAVISVP2,2013-05-11 19:33:00,
2013-05-11 12:38:00,70.4,35.6,30.14,East,82,8.0,12.0,28,0.00,,,0.00,WUHU216DAVISVP2,2013-05-11 19:38:00,
2013-05-11 12:43:00,69.2,35.4,30.14,East,90,6.0,15.0,29,0.00,,,0.00,WUHU216DAVISVP2,2013-05-11 19:43:00,
2013-05-11 12:48:00,68.8,35.1,30.14,East,95,4.0,9.0,29,0.00,,,0.00,WUHU216DAVISVP2,2013-05-11 19:48:00,
2013-05-11 12:53:00,69.0,37.7,30.14,ENE,65,11.0,18.0,32,0.00,,,0.00,WUHU216DAVISVP2,2013-05-11 19:53:00,
2013-05-11 12:58:00,68.1,36.9,30.14,NNE,29,8.0,16.0,32,0.00,,,0.00,WUHU216DAVISVP2,2013-05-11 19:58:00,
2013-05-11 13:03:00,68.0,36.8,30.14,NE,34,8.0,13.0,32,0.00,,,0.00,WUHU216DAVISVP2,2013-05-11 20:03:00,
2013-05-11 13:08:00,68.3,37.1,30.14,NNE,17,5.0,9.0,32,0.00,,,0.00,WUHU216DAVISVP2,2013-05-11 20:08:00,
2013-05-11 13:13:00,68.6,37.4,30.14,NNE,14,5.0,12.0,32,0.00,,,0.00,WUHU216DAVISVP2,2013-05-11 20:13:00,
2013-05-11 13:18:00,69.7,37.5,30.14,NNE,13,7.0,12.0,31,0.00,,,0.00,WUHU216DAVISVP2,2013-05-11 20:18:00,
2013-05-11 13:23:00,70.1,37.0,30.14,North,8,7.0,13.0,30,0.00,,,0.00,WUHU216DAVISVP2,2013-05-11 20:23:00,
2013-05-11 13:29:00,69.8,36.8,30.13,NNE,18,6.0,12.0,30,0.00,,,0.00,WUHU216DAVISVP2,2013-05-11 20:29:00,
2013-05-11 13:34:00,70.2,37.1,30.13,NE,42,7.0,16.0,30,0.00,,,0.00,WUHU216DAVISVP2,2013-05-11 20:34:00,
2013-05-11 13:39:00,70.3,36.4,30.13,NE,39,6.0,13.0,29,0.00,,,0.00,WUHU216DAVISVP2,2013-05-11 20:39:00,
2013-05-11 13:44:00,69.9,36.9,30.13,NE,34,5.0,8.0,30,0.00,,,0.00,WUHU216DAVISVP2,2013-05-11 20:44:00,
2013-05-11 13:49:00,70.0,36.9,30.13,ENE,74,7.0,13.0,30,0.00,,,0.00,WUHU216DAVISVP2,2013-05-11 20:49:00,
2013-05-11 13:54:00,70.4,36.4,30.13,SE,125,4.0,8.0,29,0.00,,,0.00,WUHU216DAVISVP2,2013-05-11 20:54:00,
2013-05-11 13:59:00,71.1,36.2,30.13,South,182,3.0,9.0,28,0.00,,,0.00,WUHU216DAVISVP2,2013-05-11 20:59:00,
2013-05-11 14:04:00,72.0,36.0,30.13,ENE,77,7.0,14.0,27,0.00,,,0.00,WUHU216DAVISVP2,2013-05-11 21:04:00,
2013-05-11 14:09:00,71.7,35.8,30.13,ENE,77,7.0,12.0,27,0.00,,,0.00,WUHU216DAVISVP2,2013-05-11 21:09:00,
2013-05-11 14:14:00,71.5,35.6,30.12,ENE,77,5.0,11.0,27,0.00,,,0.00,WUHU216DAVISVP2,2013-05-11 21:14:00,
2013-05-11 14:19:00,71.7,35.8,30.12,East,99,4.0,9.0,27,0.00,,,0.00,WUHU216DAVISVP2,2013-05-11 21:19:00,
2013-05-11 14:24:00,72.0,35.1,30.12,ENE,69,9.0,16.0,26,0.00,,,0.00,WUHU216DAVISVP2,2013-05-11 21:24:00,
2013-05-11 14:29:00,71.5,34.7,30.11,ENE,75,5.0,11.0,26,0.00,,,0.00,WUHU216DAVISVP2,2013-05-11 21:29:00,
2013-05-11 14:34:00,72.1,34.2,30.11,East,84,6.0,13.0,25,0.00,,,0.00,WUHU216DAVISVP2,2013-05-11 21:34:00,
2013-05-11 14:39:00,72.0,34.1,30.11,ESE,115,4.0,8.0,25,0.00,,,0.00,WUHU216DAVISVP2,2013-05-11 21:39:00,
2013-05-11 14:44:00,71.6,34.8,30.11,ENE,65,6.0,12.0,26,0.00,,,0.00,WUHU216DAVISVP2,2013-05-11 21:44:00,
2013-05-11 14:50:00,71.8,34.0,30.11,ENE,57,6.0,18.0,25,0.00,,,0.00,WUHU216DAVISVP2,2013-05-11 21:50:00,
2013-05-11 14:55:00,72.6,33.6,30.10,East,80,7.0,15.0,24,0.00,,,0.00,WUHU216DAVISVP2,2013-05-11 21:55:00,
2013-05-11 15:00:00,72.8,33.8,30.10,ESE,108,9.0,16.0,24,0.00,,,0.00,WUHU216DAVISVP2,2013-05-11 22:00:00,
2013-05-11 15:05:00,72.8,33.8,30.10,SE,138,5.0,12.0,24,0.00,,,0.00,WUHU216DAVISVP2,2013-05-11 22:05:00,
2013-05-11 15:10:00,72.1,33.2,30.10,East,93,10.0,16.0,24,0.00,,,0.00,WUHU216DAVISVP2,2013-05-11 22:10:00,
2013-05-11 15:15:00,70.9,33.2,30.10,ENE,72,10.0,16.0,25,0.00,,,0.00,WUHU216DAVISVP2,2013-05-11 22:15:00,
2013-05-11 15:20:00,71.1,33.4,30.10,East,82,8.0,11.0,25,0.00,,,0.00,WUHU216DAVISVP2,2013-05-11 22:20:00,
2013-05-11 15:25:00,71.6,32.8,30.10,ESE,111,5.0,10.0,24,0.00,,,0.00,WUHU216DAVISVP2,2013-05-11 22:25:00,
2013-05-11 15:30:00,72.1,33.2,30.09,East,93,4.0,9.0,24,0.00,,,0.00,WUHU216DAVISVP2,2013-05-11 22:30:00,
2013-05-11 15:35:00,72.4,33.5,30.10,ENE,69,3.0,7.0,24,0.00,,,0.00,WUHU216DAVISVP2,2013-05-11 22:35:00,
2013-05-11 15:40:00,72.2,33.3,30.10,NE,47,6.0,11.0,24,0.00,,,0.00,WUHU216DAVISVP2,2013-05-11 22:40:00,
2013-05-11 15:45:00,71.7,32.9,30.10,NE,48,5.0,10.0,24,0.00,,,0.00,WUHU216DAVISVP2,2013-05-11 22:45:00,
2013-05-11 15:51:00,71.9,33.0,30.10,ENE,59,6.0,11.0,24,0.00,,,0.00,WUHU216DAVISVP2,2013-05-11 22:51:00,
2013-05-11 15:56:00,72.5,33.5,30.10,NE,35,3.0,6.0,24,0.00,,,0.00,WUHU216DAVISVP2,2013-05-11 22:56:00,
2013-05-11 16:01:00,73.5,34.4,30.09,ENE,61,8.0,14.0,24,0.00,,,0.00,WUHU216DAVISVP2,2013-05-11 23:01:00,
2013-05-11 16:06:00,73.3,34.2,30.09,ENE,60,8.0,13.0,24,0.00,,,0.00,WUHU216DAVISVP2,2013-05-11 23:06:00,
2013-05-11 16:11:00,72.1,33.2,30.09,East,86,8.0,14.0,24,0.00,,,0.00,WUHU216DAVISVP2,2013-05-11 23:11:00,
2013-05-11 16:16:00,71.6,33.8,30.09,ENE,69,7.0,13.0,25,0.00,,,0.00,WUHU216DAVISVP2,2013-05-11 23:16:00,
2013-05-11 16:21:00,71.8,34.0,30.10,East,84,8.0,13.0,25,0.00,,,0.00,WUHU216DAVISVP2,2013-05-11 23:21:00,
2013-05-11 16:26:00,71.3,33.5,30.09,East,84,6.0,10.0,25,0.00,,,0.00,WUHU216DAVISVP2,2013-05-11 23:26:00,
2013-05-11 16:31:00,71.1,33.4,30.09,ENE,68,5.0,9.0,25,0.00,,,0.00,WUHU216DAVISVP2,2013-05-11 23:31:00,
2013-05-11 16:36:00,70.8,34.1,30.09,ENE,59,5.0,10.0,26,0.00,,,0.00,WUHU216DAVISVP2,2013-05-11 23:36:00,
2013-05-11 16:41:00,71.0,34.2,30.09,ENE,58,5.0,9.0,26,0.00,,,0.00,WUHU216DAVISVP2,2013-05-11 23:41:00,
2013-05-11 16:46:00,71.6,34.8,30.09,NE,51,2.0,5.0,26,0.00,,,0.00,WUHU216DAVISVP2,2013-05-11 23:46:00,
2013-05-11 16:51:00,72.3,35.4,30.09,ENE,60,5.0,10.0,26,0.00,,,0.00,WUHU216DAVISVP2,2013-05-11 23:51:00,
2013-05-11 16:56:00,72.8,34.8,30.09,East,84,9.0,14.0,25,0.00,,,0.00,WUHU216DAVISVP2,2013-05-11 23:56:00,
2013-05-11 17:02:00,73.0,35.0,30.09,ENE,76,7.0,13.0,25,0.00,,,0.00,WUHU216DAVISVP2,2013-05-12 00:02:00,
2013-05-11 17:07:00,72.8,34.8,30.09,ENE,72,7.0,13.0,25,0.00,,,0.00,WUHU216DAVISVP2,2013-05-12 00:07:00,
2013-05-11 17:12:00,73.1,35.1,30.09,East,86,9.0,13.0,25,0.00,,,0.00,WUHU216DAVISVP2,2013-05-12 00:12:00,
2013-05-11 17:17:00,72.9,34.9,30.09,East,93,9.0,14.0,25,0.00,,,0.00,WUHU216DAVISVP2,2013-05-12 00:17:00,
2013-05-11 17:22:00,72.4,36.4,30.09,ENE,75,11.0,18.0,27,0.00,,,0.00,WUHU216DAVISVP2,2013-05-12 00:22:00,
2013-05-11 17:27:00,70.8,36.8,30.09,East,83,10.0,13.0,29,0.00,,,0.00,WUHU216DAVISVP2,2013-05-12 00:27:00,
2013-05-11 17:32:00,69.7,35.8,30.09,ESE,110,8.0,13.0,29,0.00,,,0.00,WUHU216DAVISVP2,2013-05-12 00:32:00,
2013-05-11 17:37:00,69.2,35.4,30.09,East,99,6.0,11.0,29,0.00,,,0.00,WUHU216DAVISVP2,2013-05-12 00:37:00,
2013-05-11 17:42:00,69.0,35.2,30.09,ESE,104,7.0,9.0,29,0.00,,,0.00,WUHU216DAVISVP2,2013-05-12 00:42:00,
2013-05-11 17:47:00,69.3,35.5,30.09,East,92,5.0,8.0,29,0.00,,,0.00,WUHU216DAVISVP2,2013-05-12 00:47:00,
2013-05-11 17:52:00,69.8,35.0,30.09,ESE,102,6.0,10.0,28,0.00,,,0.00,WUHU216DAVISVP2,2013-05-12 00:52:00,
2013-05-11 17:57:00,70.2,35.4,30.09,ENE,76,5.0,9.0,28,0.00,,,0.00,WUHU216DAVISVP2,2013-05-12 00:57:00,
2013-05-11 18:02:00,70.4,35.6,30.09,ENE,73,10.0,16.0,28,0.00,,,0.00,WUHU216DAVISVP2,2013-05-12 01:02:00,
2013-05-11 18:07:00,70.1,35.3,30.09,ENE,69,11.0,15.0,28,0.00,,,0.00,WUHU216DAVISVP2,2013-05-12 01:07:00,
2013-05-11 18:12:00,69.9,35.1,30.09,ENE,71,8.0,13.0,28,0.00,,,0.00,WUHU216DAVISVP2,2013-05-12 01:12:00,
2013-05-11 18:17:00,69.6,34.9,30.09,East,80,9.0,14.0,28,0.00,,,0.00,WUHU216DAVISVP2,2013-05-12 01:17:00,
2013-05-11 18:23:00,69.4,34.7,30.09,ENE,70,9.0,14.0,28,0.00,,,0.00,WUHU216DAVISVP2,2013-05-12 01:23:00,
2013-05-11 18:28:00,69.1,33.5,30.09,ENE,78,9.0,13.0,27,0.00,,,0.00,WUHU216DAVISVP2,2013-05-12 01:28:00,
2013-05-11 18:33:00,68.9,34.3,30.09,ENE,68,7.0,12.0,28,0.00,,,0.00,WUHU216DAVISVP2,2013-05-12 01:33:00,
2013-05-11 18:38:00,68.6,34.0,30.09,ENE,73,7.0,10.0,28,0.00,,,0.00,WUHU216DAVISVP2,2013-05-12 01:38:00,
2013-05-11 18:43:00,68.3,34.6,30.09,ENE,66,6.0,10.0,29,0.00,,,0.00,WUHU216DAVISVP2,2013-05-12 01:43:00,
2013-05-11 18:48:00,68.0,33.5,30.09,ENE,75,7.0,11.0,28,0.00,,,0.00,WUHU216DAVISVP2,2013-05-12 01:48:00,
2013-05-11 18:53:00,67.8,33.3,30.09,ENE,74,8.0,13.0,28,0.00,,,0.00,WUHU216DAVISVP2,2013-05-12 01:53:00,
2013-05-11 18:58:00,67.6,33.2,30.10,ENE,66,6.0,11.0,28,0.00,,,0.00,WUHU216DAVISVP2,2013-05-12 01:58:00,
2013-05-11 19:03:00,67.3,32.9,30.10,ENE,62,7.0,11.0,28,0.00,,,0.00,WUHU216DAVISVP2,2013-05-12 02:03:00,
2013-05-11 19:08:00,67.0,32.6,30.10,ENE,64,5.0,8.0,28,0.00,,,0.00,WUHU216DAVISVP2,2013-05-12 02:08:00,
2013-05-11 19:13:00,66.6,32.3,30.10,ENE,68,5.0,9.0,28,0.00,,,0.00,WUHU216DAVISVP2,2013-05-12 02:13:00,
2013-05-11 19:18:00,66.3,32.9,30.10,ENE,76,6.0,9.0,29,0.00,,,0.00,WUHU216DAVISVP2,2013-05-12 02:18:00,
2013-05-11 19:23:00,66.1,32.7,30.11,ENE,77,5.0,9.0,29,0.00,,,0.00,WUHU216DAVISVP2,2013-05-12 02:23:00,
2013-05-11 19:28:00,65.7,33.2,30.11,ENE,71,4.0,8.0,30,0.00,,,0.00,WUHU216DAVISVP2,2013-05-12 02:28:00,
2013-05-11 19:33:00,65.5,32.2,30.11,ENE,72,6.0,10.0,29,0.00,,,0.00,WUHU216DAVISVP2,2013-05-12 02:33:00,
2013-05-11 19:38:00,65.4,32.1,30.11,ENE,69,5.0,9.0,29,0.00,,,0.00,WUHU216DAVISVP2,2013-05-12 02:38:00,
2013-05-11 19:43:00,65.2,31.9,30.11,ENE,73,5.0,8.0,29,0.00,,,0.00,WUHU216DAVISVP2,2013-05-12 02:43:00,
2013-05-11 19:49:00,64.8,31.6,30.11,ENE,72,4.0,8.0,29,0.00,,,0.00,WUHU216DAVISVP2,2013-05-12 02:49:00,
2013-05-11 19:54:00,64.5,32.2,30.12,ENE,77,5.0,11.0,30,0.00,,,0.00,WUHU216DAVISVP2,2013-05-12 02:54:00,
2013-05-11 19:59:00,64.4,32.1,30.12,East,85,6.0,9.0,30,0.00,,,0.00,WUHU216DAVISVP2,2013-05-12 02:59:00,
2013-05-11 20:04:00,64.1,31.8,30.13,East,80,3.0,7.0,30,0.00,,,0.00,WUHU216DAVISVP2,2013-05-12 03:04:00,
2013-05-11 20:09:00,63.5,32.1,30.13,ENE,74,2.0,3.0,31,0.00,,,0.00,WUHU216DAVISVP2,2013-05-12 03:09:00,
2013-05-11 20:14:00,63.0,31.7,30.13,East,96,2.0,4.0,31,0.00,,,0.00,WUHU216DAVISVP2,2013-05-12 03:14:00,
2013-05-11 20:19:00,62.6,32.9,30.13,East,88,2.0,3.0,33,0.00,,,0.00,WUHU216DAVISVP2,2013-05-12 03:19:00,
2013-05-11 20:24:00,62.2,33.3,30.13,East,98,2.0,7.0,34,0.00,,,0.00,WUHU216DAVISVP2,2013-05-12 03:24:00,
2013-05-11 20:29:00,61.9,33.7,30.13,East,94,2.0,5.0,35,0.00,,,0.00,WUHU216DAVISVP2,2013-05-12 03:29:00,
2013-05-11 20:34:00,61.8,33.6,30.14,East,87,3.0,8.0,35,0.00,,,0.00,WUHU216DAVISVP2,2013-05-12 03:34:00,
2013-05-11 20:39:00,61.9,33.7,30.14,East,82,6.0,9.0,35,0.00,,,0.00,WUHU216DAVISVP2,2013-05-12 03:39:00,
2013-05-11 20:44:00,62.4,33.4,30.14,East,86,7.0,10.0,34,0.00,,,0.00,WUHU216DAVISVP2,2013-05-12 03:44:00,
2013-05-11 20:49:00,62.8,33.8,30.14,East,80,9.0,13.0,34,0.00,,,0.00,WUHU216DAVISVP2,2013-05-12 03:49:00,
2013-05-11 20:54:00,63.0,34.0,30.14,East,79,9.0,14.0,34,0.00,,,0.00,WUHU216DAVISVP2,2013-05-12 03:54:00,
2013-05-11 20:59:00,62.9,33.9,30.14,East,80,8.0,11.0,34,0.00,,,0.00,WUHU216DAVISVP2,2013-05-12 03:59:00,
2013-05-11 21:04:00,62.6,33.6,30.14,East,83,7.0,11.0,34,0.00,,,0.00,WUHU216DAVISVP2,2013-05-12 04:04:00,
2013-05-11 21:10:00,62.4,33.4,30.15,East,82,7.0,10.0,34,0.00,,,0.00,WUHU216DAVISVP2,2013-05-12 04:10:00,
2013-05-11 21:15:00,62.2,33.3,30.15,ENE,75,6.0,9.0,34,0.00,,,0.00,WUHU216DAVISVP2,2013-05-12 04:15:00,
2013-05-11 21:20:00,62.0,33.8,30.15,ENE,75,5.0,9.0,35,0.00,,,0.00,WUHU216DAVISVP2,2013-05-12 04:20:00,
2013-05-11 21:25:00,61.7,33.6,30.15,ENE,72,5.0,7.0,35,0.00,,,0.00,WUHU216DAVISVP2,2013-05-12 04:25:00,
2013-05-11 21:30:00,61.5,33.4,30.15,ENE,64,4.0,7.0,35,0.00,,,0.00,WUHU216DAVISVP2,2013-05-12 04:30:00,
2013-05-11 21:35:00,61.3,33.9,30.15,ENE,61,3.0,5.0,36,0.00,,,0.00,WUHU216DAVISVP2,2013-05-12 04:35:00,
2013-05-11 21:40:00,61.1,33.7,30.16,ENE,59,3.0,5.0,36,0.00,,,0.00,WUHU216DAVISVP2,2013-05-12 04:40:00,
2013-05-11 21:45:00,60.8,34.2,30.16,NE,53,3.0,6.0,37,0.00,,,0.00,WUHU216DAVISVP2,2013-05-12 04:45:00,
2013-05-11 21:50:00,60.4,33.8,30.16,ENE,59,2.0,3.0,37,0.00,,,0.00,WUHU216DAVISVP2,2013-05-12 04:50:00,
2013-05-11 21:55:00,60.0,34.1,30.16,ENE,64,2.0,4.0,38,0.00,,,0.00,WUHU216DAVISVP2,2013-05-12 04:55:00,
2013-05-11 22:00:00,59.8,34.6,30.16,NE,56,2.0,3.0,39,0.00,,,0.00,WUHU216DAVISVP2,2013-05-12 05:00:00,
2013-05-11 22:05:00,59.6,35.1,30.16,ENE,66,1.0,3.0,40,0.00,,,0.00,WUHU216DAVISVP2,2013-05-12 05:05:00,
2013-05-11 22:10:00,59.3,34.8,30.16,ENE,69,2.0,4.0,40,0.00,,,0.00,WUHU216DAVISVP2,2013-05-12 05:10:00,
2013-05-11 22:15:00,59.1,34.6,30.16,ENE,60,2.0,3.0,40,0.00,,,0.00,WUHU216DAVISVP2,2013-05-12 05:15:00,
2013-05-11 22:21:00,58.8,35.0,30.16,NE,45,2.0,4.0,41,0.00,,,0.00,WUHU216DAVISVP2,2013-05-12 05:21:00,
2013-05-11 22:26:00,58.5,34.7,30.16,NE,51,1.0,2.0,41,0.00,,,0.00,WUHU216DAVISVP2,2013-05-12 05:26:00,
2013-05-11 22:31:00,58.1,34.4,30.16,NE,55,1.0,2.0,41,0.00,,,0.00,WUHU216DAVISVP2,2013-05-12 05:31:00,
2013-05-11 22:36:00,57.6,34.5,30.16,NE,54,1.0,2.0,42,0.00,,,0.00,WUHU216DAVISVP2,2013-05-12 05:36:00,
2013-05-11 22:41:00,57.2,34.2,30.16,NE,51,1.0,2.0,42,0.00,,,0.00,WUHU216DAVISVP2,2013-05-12 05:41:00,
2013-05-11 22:46:00,57.0,34.6,30.16,NE,46,1.0,3.0,43,0.00,,,0.00,WUHU216DAVISVP2,2013-05-12 05:46:00,
2013-05-11 22:51:00,56.7,34.3,30.16,NNE,30,2.0,3.0,43,0.00,,,0.00,WUHU216DAVISVP2,2013-05-12 05:51:00,
2013-05-11 22:56:00,56.4,34.6,30.16,NNE,18,1.0,3.0,44,0.00,,,0.00,WUHU216DAVISVP2,2013-05-12 05:56:00,
2013-05-11 23:01:00,56.1,34.4,30.16,NNE,19,2.0,3.0,44,0.00,,,0.00,WUHU216DAVISVP2,2013-05-12 06:01:00,
2013-05-11 23:06:00,55.7,34.0,30.16,NNE,20,2.0,3.0,44,0.00,,,0.00,WUHU216DAVISVP2,2013-05-12 06:06:00,
2013-05-11 23:12:00,55.6,34.5,30.16,NNE,25,2.0,3.0,45,0.00,,,0.00,WUHU216DAVISVP2,2013-05-12 06:12:00,
2013-05-11 23:17:00,55.5,34.4,30.16,NE,38,1.0,3.0,45,0.00,,,0.00,WUHU216DAVISVP2,2013-05-12 06:17:00,
2013-05-11 23:22:00,55.5,34.4,30.16,NE,36,2.0,3.0,45,0.00,,,0.00,WUHU216DAVISVP2,2013-05-12 06:22:00,
2013-05-11 23:27:00,55.3,34.2,30.15,NE,36,2.0,3.0,45,0.00,,,0.00,WUHU216DAVISVP2,2013-05-12 06:27:00,
2013-05-11 23:32:00,55.2,34.1,30.15,NE,34,1.0,3.0,45,0.00,,,0.00,WUHU216DAVISVP2,2013-05-12 06:32:00,
2013-05-11 23:37:00,55.0,33.9,30.15,NE,43,2.0,3.0,45,0.00,,,0.00,WUHU216DAVISVP2,2013-05-12 06:37:00,
2013-05-11 23:42:00,55.1,34.0,30.16,NE,38,2.0,4.0,45,0.00,,,0.00,WUHU216DAVISVP2,2013-05-12 06:42:00,
2013-05-11 23:47:00,54.6,34.1,30.16,NE,36,2.0,3.0,46,0.00,,,0.00,WUHU216DAVISVP2,2013-05-12 06:47:00,
2013-05-11 23:52:00,54.2,33.8,30.16,NE,36,2.0,3.0,46,0.00,,,0.00,WUHU216DAVISVP2,2013-05-12 06:52:00,
2013-05-11 23:57:00,54.1,34.2,30.16,NE,36,1.0,2.0,47,0.00,,,0.00,WUHU216DAVISVP2,2013-05-12 06:57:00,